Location: ???????
(52.3000°N, 54.4667°E)
Time: 21:59:13
(UTC+00:00)

STARLINK-1078 - Pass Details

Date: 24 January 2020
Orbit: 348 x 350 km, 53.0° (Epoch: 17 February)

Event Time Altitude Azimuth Distance (km) Brightness Sun altitude
Rises 14:05:49 0° 263° (W) 2,165 8.6 -10.9°
Reaches altitude 10° 14:07:49 10° 264° (W) 1,323 7.0 -11.2°
Maximum altitude 14:10:46 81° 353° (N) 363 2.7 -11.7°
Enters shadow 14:12:31 22° 78° (ENE) 837 3.9 -11.9°
